SCP
0 0 0 0 0 0 0 0 0 0 0 0 0 0 0 0 0 0 0 0 0 0 0 0 0 0 -0 -0 -0 0 0 0 0 0 0 0 0 0 0 0 -0 0 0
0 0 0 0 0 0 0 0 0 0 0 0 0 0 0 0 0 0 0 0 0 0 0 0 0 0 -0 -0 -0 0 0 0 0 0 0 0 0 0 0 0 0 0 0
0 0 0 0 0 0 0 0 0 0 0 0 0 0 0 0 0 0 0 0 0 0 0 0 0 0 -0 -0 -0 -0 0 0 0 0 0 0 -0 -0 0 0 0 0 0
0 0 0 0 0 0 0 0 0 0 0 0 0 0 0 0 0 0 0 0 0 0 0 0 0 0 0 -0 -0 -0 0 0 0 0 0 0 0 0 0 0 0 0 0
0 0 0 0 0 0 0 0 0 0 0 0 0 0 0 0 0 0 0 0 0 0 0 0 0 0 0 0 -0 0 -0 -0 0 0 0 0 0 0 0 0 0 0 0
0 0 0 0 0 0 0 0 0 0 0 0 0 0 0 0 0 0 0 0 0 0 0 0 0 0 0 0 -0 -0 -0 -0 -0 0 0 0 0 0 0 0 0 0 0
0 0 0 0 0 0 0 0 0 0 0 0 0 0 0 0 0 0 0 0 0 0 0 0 0 0 0 0 -0 -0 0 -0 -0 0 0 0 0 0 0 0 0 0 0
0 0 0 0 0 0 0 0 0 0 0 0 0 0 0 0 0 0 0 0 0 0 0 0 0 0 0 0 0 -0 -0 0 -0 0 0 0 0 0 0 0 0 0 0
0 0 0 0 0 0 0 0 0 0 0 0 0 0 0 0 0 0 0 0 0 0 0 0 0 0 0 0 0 -0 0 0 -0 0 0 0 0 0 0 0 0 0 0
0 0 0 0 0 0 0 0 0 0 0 0 0 0 0 0 0 0 0 0 0 0 0 0 0 0 0 0 0 0 0 0 0 -0 0 0 0 0 0 0 0 0 0
0 0 0 0 0 0 0 0 0 0 0 0 0 0 0 0 0 0 0 0 0 0 0 0 0 0 0 0 0 0 0 0 0 0 0 0 0 0 0 0 0 0 0
0 0 0 0 0 0 0 0 0 0 0 0 0 0 0 0 0 0 0 0 0 0 0 0 0 0 0 0 0 0 0 0 0 0 0 0 0 0 0 0 0 0 0
0 0 0 0 0 0 0 0 0 0 0 0 0 0 0 0 0 0 0 0 0 0 0 0 0 0 0 0 0 0 0 0 0 0 0 0 0 0 0 0 0 0 0
0 0 0 0 0 0 0 0 0 0 0 0 0 0 0 0 0 0 0 0 0 0 0 0 0 0 0 0 0 0 0 0 0 0 0 0 0 0 0 0 0 0 0
0 0 0 0 0 0 0 0 0 0 0 0 0 0 0 0 0 0 0 0 0 0 0 0 0 0 0 0 0 0 0 0 0 0 0 0 0 0 0 0 0 0 0
0 0 0 0 0 0 0 0 0 0 0 0 0 0 0 0 0 0 0 0 0 0 0 0 0 0 0 0 -0 -0 0 0 0 0 0 0 0 0 0 0 0 0 0
0 0 0 0 0 0 0 0 0 0 0 0 0 0 0 0 0 0 0 0 0 0 0 0 0 0 0 0 -0 -0 0 0 0 0 0 0 0 0 0 0 0 0 0
0 0 0 0 0 0 0 0 0 0 0 0 0 0 0 0 0 0 0 0 0 0 0 0 0 0 0 0 0 -0 0 0 0 0 0 0 0 0 0 0 0 0 0
0 0 0 0 0 0 0 0 0 0 0 0 0 0 0 0 0 0 0 0 0 0 0 0 0 0 0 0 0 0 0 0 0 0 0 0 0 0 0 0 0 0 0
0 0 0 0 0 0 0 0 0 0 0 0 0 0 0 0 0 0 0 0 0 0 0 0 0 0 0 0 0 0 0 0 0 0 0 0 0 0 0 0 0 0 0
0 0 0 0 0 0 0 0 0 0 0 0 0 0 0 0 0 0 0 0 0 0 0 0 0 0 0 0 0 0 0 0 0 0 0 0 0 0 0 0 0 0 0
0 0 0 0 0 0 0 0 0 0 0 0 0 0 0 0 0 0 0 0 0 0 0 0 0 0 0 0 -0 -0 -0 -0 0 0 0 0 0 0 0 0 0 0 0
0 0 0 0 0 0 0 0 0 0 0 0 0 0 0 0 0 0 0 0 0 0 0 0 0 0 0 0 0 0 0 -0 0 0 0 -0 0 0 0 0 0 0 0
0 0 0 0 0 0 0 0 0 0 0 0 0 0 0 0 0 0 0 0 0 0 0 0 0 0 0 0 0 0 0 0 0 0 0 0 0 0 0 0 0 0 0
0 0 0 0 0 0 0 0 0 0 0 0 0 0 0 0 0 0 0 0 0 0 0 0 0 0 0 0 0 0 0 0 0 0 0 0 0 0 0 0 0 0 0
0 0 0 0 0 0 0 0 0 0 0 0 0 0 0 0 0 0 0 0 0 0 0 0 0 0 0 0 0 0 0 0 0 0 0 0 0 0 0 0 0 0 0
Wind_Speed_500mb
18 10 10 13 18 20 23 25 30 33 35 41 48 50 49 46 46 48 52 54 54 57 60 61 62 64 65 63 71 69 53 32 38 30 25 19 16 17 17 17 14 26 33
20 15 10 9 18 21 20 22 29 32 34 37 42 46 44 42 39 42 45 49 49 51 55 57 59 58 62 62 60 71 81 53 31 35 18 10 16 15 20 26 27 23 19
32 24 17 14 16 18 17 20 27 28 32 36 40 41 41 42 45 47 47 48 49 49 50 54 56 58 56 60 56 59 69 74 46 23 12 9 7 23 13 19 20 26 30
38 30 25 18 13 11 12 18 23 25 29 34 38 42 46 49 46 47 46 46 49 49 49 50 53 55 57 54 54 51 55 64 73 48 17 10 22 8 9 7 12 16 28
42 38 27 18 12 9 12 16 20 23 26 32 39 40 41 40 39 40 41 43 46 51 51 49 50 53 55 55 54 49 48 50 63 68 42 19 15 18 17 13 19 19 15
47 39 26 20 15 10 12 14 18 21 25 33 38 38 40 41 42 43 44 45 47 48 50 52 48 49 52 55 55 53 46 46 52 59 55 32 20 21 13 10 12 19 21
56 44 34 27 18 12 11 12 17 20 25 33 36 36 37 37 39 43 46 47 46 47 49 50 51 48 47 51 50 52 51 49 51 56 60 41 22 17 10 15 23 24 20
56 48 38 31 23 15 11 13 16 20 27 33 34 34 36 37 40 43 43 44 45 45 43 44 45 47 45 46 48 49 53 47 46 52 54 57 33 15 10 14 18 19 13
62 53 44 35 26 17 13 13 16 21 27 31 34 36 39 39 42 44 45 46 44 43 39 39 40 43 44 45 46 49 51 53 43 46 55 59 50 24 11 11 19 16 9
63 56 47 39 29 21 17 16 17 21 28 30 35 39 41 42 45 46 46 47 46 42 40 36 35 36 41 43 43 45 49 52 52 42 48 55 58 40 16 13 16 11 23
70 60 50 42 33 25 20 17 18 21 26 30 35 36 36 37 41 45 47 47 46 42 39 36 32 32 34 39 41 41 44 50 52 45 43 49 58 55 37 16 12 14 14
67 59 52 46 37 29 24 19 17 21 26 30 32 31 33 36 41 45 47 49 48 45 37 32 29 28 28 31 37 40 40 46 51 50 41 44 54 57 51 31 14 14 18
67 62 57 51 42 32 28 21 17 19 23 25 24 26 30 36 42 46 48 49 48 46 39 31 27 25 25 26 31 36 36 38 44 48 46 40 45 57 59 43 28 10 7
77 70 62 54 46 38 29 23 17 18 20 19 20 22 28 36 43 46 48 48 47 45 40 32 25 21 21 23 26 31 33 32 36 42 45 45 38 46 55 50 33 18 7
84 78 69 60 53 43 33 27 18 18 14 13 16 19 27 36 40 43 45 46 46 43 39 34 26 19 16 25 30 27 27 31 30 34 40 45 43 29 44 45 40 28 17
90 83 71 65 58 45 36 29 19 18 10 10 10 16 26 33 38 41 43 43 42 41 38 32 28 24 18 31 31 25 22 26 29 31 35 42 44 39 32 43 37 33 27
96 91 81 72 62 47 38 29 21 17 9 6 5 13 23 30 35 38 40 41 42 40 37 32 29 26 23 29 36 25 20 25 25 28 31 37 43 48 34 37 40 35 31
95 89 81 73 62 49 43 32 24 19 11 8 1 11 20 27 31 35 37 40 41 41 40 36 32 28 26 31 36 30 21 20 23 25 27 31 37 44 44 30 37 39 34
92 87 79 71 61 53 45 33 27 24 16 11 4 6 15 21 26 29 33 37 40 41 43 42 40 35 28 29 33 35 24 19 21 24 23 25 29 35 40 34 26 37 35
82 81 76 69 61 56 48 36 31 28 21 15 8 3 10 16 22 28 32 35 38 41 42 44 45 42 33 25 36 38 31 24 21 20 20 21 22 27 34 32 32 29 35
76 74 73 71 64 57 48 39 37 31 26 20 13 6 7 13 20 24 28 30 33 35 39 42 45 46 45 39 42 38 35 30 25 22 19 21 16 21 27 26 26 28 26
73 75 79 74 67 59 49 42 40 35 30 23 16 9 6 10 16 20 24 27 30 32 36 40 44 47 48 50 45 43 39 32 26 21 19 17 16 17 22 24 24 19 23
74 75 78 75 69 61 49 45 44 38 33 26 19 12 6 6 11 16 20 24 28 31 36 40 44 48 50 58 55 52 44 34 29 21 17 13 12 11 16 19 18 19 24
78 81 82 79 72 62 53 49 44 40 35 28 22 15 9 5 6 12 18 22 25 29 36 40 44 47 53 62 63 62 56 42 32 19 11 4 4 8 11 14 18 21 25
81 82 82 77 67 59 56 54 48 43 37 32 24 17 11 5 1 8 14 19 24 29 34 38 42 46 51 52 49 53 59 46 39 15 1 5 8 6 8 15 19 22 21
85 84 80 72 64 58 56 53 48 43 38 32 26 19 13 7 2 4 10 16 20 21 24 27 31 35 35 37 43 52 58 48 33 23 10 10 9 9 9 13 18 25 25
Wind_Direction_500mb
229 249 294 325 324 333 340 348 352 5 2 5 3 5 5 0 357 357 354 356 359 2 6 8 7 6 8 11 15 14 5 356 355 331 329 318 304 300 291 275 288 280 262
207 212 248 267 297 320 335 345 352 359 360 1 3 2 1 0 359 360 359 357 358 2 5 9 11 9 8 6 13 12 13 3 8 340 320 327 329 305 283 280 273 272 275
192 207 226 246 280 308 337 339 349 355 354 357 355 359 358 0 1 5 4 3 4 4 6 9 11 13 14 13 13 10 14 9 3 359 319 338 336 327 320 282 273 273 266
201 210 226 242 269 308 322 333 346 350 351 353 357 1 359 356 359 358 360 2 3 6 6 9 11 12 15 16 15 13 13 12 17 3 354 277 303 304 318 334 308 291 272
211 214 223 238 255 294 322 329 344 345 350 352 353 356 355 353 355 357 356 359 2 7 10 8 9 11 12 16 16 17 15 9 11 7 3 15 313 303 274 285 305 313 309
201 212 218 226 240 275 302 326 340 346 347 345 347 351 351 349 352 355 356 358 359 4 9 10 8 10 11 12 16 17 16 21 6 10 12 359 351 331 312 292 289 302 300
198 208 211 218 231 252 289 320 333 337 340 342 344 349 347 346 348 348 348 349 351 358 5 8 9 8 9 9 12 16 19 17 13 8 12 6 351 333 301 294 280 277 294
200 208 212 218 226 246 272 304 325 328 335 342 343 346 342 339 341 340 339 338 341 348 355 2 7 9 6 7 10 14 18 18 17 11 9 12 0 325 350 288 268 289 307
197 205 210 215 223 238 258 287 309 319 333 340 340 342 336 334 335 331 327 324 326 330 338 347 358 7 8 7 7 13 16 20 15 16 9 12 10 356 305 304 290 278 278
198 206 209 213 218 231 248 277 298 314 328 338 340 340 337 338 338 337 333 327 320 315 319 329 343 357 6 8 8 9 14 16 19 16 15 8 13 14 356 305 283 274 260
200 205 207 210 217 226 238 266 288 310 325 336 341 340 343 351 348 347 344 342 340 329 311 315 330 343 356 5 10 10 13 15 16 17 19 9 8 15 14 347 312 256 271
202 206 209 211 214 222 233 257 280 308 324 336 341 344 351 354 351 350 348 348 348 343 331 312 316 331 342 356 7 10 14 14 15 18 15 16 5 11 14 11 332 276 271
202 205 208 210 214 220 231 251 271 301 320 331 341 346 355 357 356 353 352 352 351 347 345 332 320 328 337 346 357 10 12 17 17 17 20 13 9 8 11 13 2 350 303
202 205 206 209 213 219 229 242 263 296 313 329 339 349 359 2 359 357 355 356 355 349 350 348 337 332 337 341 347 1 6 16 17 19 23 19 13 8 8 16 19 21 358
201 207 207 207 212 218 223 232 251 284 302 322 338 354 5 6 3 358 358 359 356 352 352 353 350 342 345 351 348 349 356 3 11 15 18 26 23 15 12 15 19 24 32
206 209 208 209 213 216 219 226 244 268 271 307 337 0 10 11 6 2 1 2 359 358 356 358 1 360 356 6 0 347 347 351 1 6 13 16 23 26 19 20 24 25 34
209 209 209 210 213 211 214 218 236 245 235 271 339 13 15 14 10 7 6 6 6 6 5 4 7 9 1 14 7 347 343 344 349 358 4 14 16 24 27 18 25 25 35
212 212 210 209 210 206 209 212 226 221 207 222 24 23 19 18 15 12 11 13 14 13 14 11 9 9 9 24 11 359 352 347 349 348 0 4 12 25 25 19 12 22 27
222 216 213 209 204 205 207 207 217 207 198 200 140 37 27 22 20 19 19 21 22 22 21 18 13 11 13 30 11 360 356 348 348 341 1 360 8 22 24 26 26 13 30
221 213 208 203 203 201 205 205 207 197 194 190 168 89 34 25 28 23 24 28 30 31 29 26 23 20 17 22 10 4 355 347 345 339 357 1 7 24 25 26 28 20 20
215 209 204 201 202 201 203 204 201 192 192 187 178 164 52 28 33 31 30 29 32 34 35 33 29 27 22 20 13 10 354 350 344 337 342 1 13 29 28 26 26 24 22
203 201 198 198 199 200 202 202 196 191 193 186 179 173 99 37 33 31 33 29 28 27 31 32 31 29 24 23 17 10 2 353 340 334 334 359 11 30 28 30 33 34 37
199 196 196 195 196 199 200 201 195 193 191 187 184 170 138 59 31 27 26 27 25 22 25 25 25 23 20 23 14 6 1 354 337 321 325 352 8 26 36 39 42 45 51
195 193 191 195 195 197 199 196 196 195 192 189 186 179 165 114 25 13 14 19 23 19 19 17 18 19 19 20 7 357 355 359 348 309 305 318 14 46 40 51 59 53 49
192 193 193 196 197 199 198 195 194 197 193 191 191 190 180 154 16 8 5 10 16 20 13 10 11 10 20 14 3 359 2 2 353 19 66 129 148 127 97 71 69 72 67
191 191 195 196 197 201 200 196 195 196 197 196 196 196 197 192 177 359 357 6 12 17 10 7 4 7 11 8 6 5 8 5 14 17 60 80 97 86 75 69 66 66 60
Wind_Speed_850mb
18 10 10 13 18 20 23 25 30 33 35 41 48 50 49 46 46 48 52 54 54 57 60 61 62 64 65 63 71 69 53 32 38 30 25 19 16 17 17 17 14 26 33
20 15 10 9 18 21 20 22 29 32 34 37 42 46 44 42 39 42 45 49 49 51 55 57 59 58 62 62 60 71 81 53 31 35 18 10 16 15 20 26 27 23 19
32 24 17 14 16 18 17 20 27 28 32 36 40 41 41 42 45 47 47 48 49 49 50 54 56 58 56 60 56 59 69 74 46 23 12 9 7 23 13 19 20 26 30
38 30 25 18 13 11 12 18 23 25 29 34 38 42 46 49 46 47 46 46 49 49 49 50 53 55 57 54 54 51 55 64 73 48 17 10 22 8 9 7 12 16 28
42 38 27 18 12 9 12 16 20 23 26 32 39 40 41 40 39 40 41 43 46 51 51 49 50 53 55 55 54 49 48 50 63 68 42 19 15 18 17 13 19 19 15
47 39 26 20 15 10 12 14 18 21 25 33 38 38 40 41 42 43 44 45 47 48 50 52 48 49 52 55 55 53 46 46 52 59 55 32 20 21 13 10 12 19 21
56 44 34 27 18 12 11 12 17 20 25 33 36 36 37 37 39 43 46 47 46 47 49 50 51 48 47 51 50 52 51 49 51 56 60 41 22 17 10 15 23 24 20
56 48 38 31 23 15 11 13 16 20 27 33 34 34 36 37 40 43 43 44 45 45 43 44 45 47 45 46 48 49 53 47 46 52 54 57 33 15 10 14 18 19 13
62 53 44 35 26 17 13 13 16 21 27 31 34 36 39 39 42 44 45 46 44 43 39 39 40 43 44 45 46 49 51 53 43 46 55 59 50 24 11 11 19 16 9
63 56 47 39 29 21 17 16 17 21 28 30 35 39 41 42 45 46 46 47 46 42 40 36 35 36 41 43 43 45 49 52 52 42 48 55 58 40 16 13 16 11 23
70 60 50 42 33 25 20 17 18 21 26 30 35 36 36 37 41 45 47 47 46 42 39 36 32 32 34 39 41 41 44 50 52 45 43 49 58 55 37 16 12 14 14
67 59 52 46 37 29 24 19 17 21 26 30 32 31 33 36 41 45 47 49 48 45 37 32 29 28 28 31 37 40 40 46 51 50 41 44 54 57 51 31 14 14 18
67 62 57 51 42 32 28 21 17 19 23 25 24 26 30 36 42 46 48 49 48 46 39 31 27 25 25 26 31 36 36 38 44 48 46 40 45 57 59 43 28 10 7
77 70 62 54 46 38 29 23 17 18 20 19 20 22 28 36 43 46 48 48 47 45 40 32 25 21 21 23 26 31 33 32 36 42 45 45 38 46 55 50 33 18 7
84 78 69 60 53 43 33 27 18 18 14 13 16 19 27 36 40 43 45 46 46 43 39 34 26 19 16 25 30 27 27 31 30 34 40 45 43 29 44 45 40 28 17
90 83 71 65 58 45 36 29 19 18 10 10 10 16 26 33 38 41 43 43 42 41 38 32 28 24 18 31 31 25 22 26 29 31 35 42 44 39 32 43 37 33 27
96 91 81 72 62 47 38 29 21 17 9 6 5 13 23 30 35 38 40 41 42 40 37 32 29 26 23 29 36 25 20 25 25 28 31 37 43 48 34 37 40 35 31
95 89 81 73 62 49 43 32 24 19 11 8 1 11 20 27 31 35 37 40 41 41 40 36 32 28 26 31 36 30 21 20 23 25 27 31 37 44 44 30 37 39 34
92 87 79 71 61 53 45 33 27 24 16 11 4 6 15 21 26 29 33 37 40 41 43 42 40 35 28 29 33 35 24 19 21 24 23 25 29 35 40 34 26 37 35
82 81 76 69 61 56 48 36 31 28 21 15 8 3 10 16 22 28 32 35 38 41 42 44 45 42 33 25 36 38 31 24 21 20 20 21 22 27 34 32 32 29 35
76 74 73 71 64 57 48 39 37 31 26 20 13 6 7 13 20 24 28 30 33 35 39 42 45 46 45 39 42 38 35 30 25 22 19 21 16 21 27 26 26 28 26
73 75 79 74 67 59 49 42 40 35 30 23 16 9 6 10 16 20 24 27 30 32 36 40 44 47 48 50 45 43 39 32 26 21 19 17 16 17 22 24 24 19 23
74 75 78 75 69 61 49 45 44 38 33 26 19 12 6 6 11 16 20 24 28 31 36 40 44 48 50 58 55 52 44 34 29 21 17 13 12 11 16 19 18 19 24
78 81 82 79 72 62 53 49 44 40 35 28 22 15 9 5 6 12 18 22 25 29 36 40 44 47 53 62 63 62 56 42 32 19 11 4 4 8 11 14 18 21 25
81 82 82 77 67 59 56 54 48 43 37 32 24 17 11 5 1 8 14 19 24 29 34 38 42 46 51 52 49 53 59 46 39 15 1 5 8 6 8 15 19 22 21
85 84 80 72 64 58 56 53 48 43 38 32 26 19 13 7 2 4 10 16 20 21 24 27 31 35 35 37 43 52 58 48 33 23 10 10 9 9 9 13 18 25 25
Wind_Direction_850mb
229 249 294 325 324 333 340 348 352 5 2 5 3 5 5 0 357 357 354 356 359 2 6 8 7 6 8 11 15 14 5 356 355 331 329 318 304 300 291 275 288 280 262
207 212 248 267 297 320 335 345 352 359 360 1 3 2 1 0 359 360 359 357 358 2 5 9 11 9 8 6 13 12 13 3 8 340 320 327 329 305 283 280 273 272 275
192 207 226 246 280 308 337 339 349 355 354 357 355 359 358 0 1 5 4 3 4 4 6 9 11 13 14 13 13 10 14 9 3 359 319 338 336 327 320 282 273 273 266
201 210 226 242 269 308 322 333 346 350 351 353 357 1 359 356 359 358 360 2 3 6 6 9 11 12 15 16 15 13 13 12 17 3 354 277 303 304 318 334 308 291 272
211 214 223 238 255 294 322 329 344 345 350 352 353 356 355 353 355 357 356 359 2 7 10 8 9 11 12 16 16 17 15 9 11 7 3 15 313 303 274 285 305 313 309
201 212 218 226 240 275 302 326 340 346 347 345 347 351 351 349 352 355 356 358 359 4 9 10 8 10 11 12 16 17 16 21 6 10 12 359 351 331 312 292 289 302 300
198 208 211 218 231 252 289 320 333 337 340 342 344 349 347 346 348 348 348 349 351 358 5 8 9 8 9 9 12 16 19 17 13 8 12 6 351 333 301 294 280 277 294
200 208 212 218 226 246 272 304 325 328 335 342 343 346 342 339 341 340 339 338 341 348 355 2 7 9 6 7 10 14 18 18 17 11 9 12 0 325 350 288 268 289 307
197 205 210 215 223 238 258 287 309 319 333 340 340 342 336 334 335 331 327 324 326 330 338 347 358 7 8 7 7 13 16 20 15 16 9 12 10 356 305 304 290 278 278
198 206 209 213 218 231 248 277 298 314 328 338 340 340 337 338 338 337 333 327 320 315 319 329 343 357 6 8 8 9 14 16 19 16 15 8 13 14 356 305 283 274 260
200 205 207 210 217 226 238 266 288 310 325 336 341 340 343 351 348 347 344 342 340 329 311 315 330 343 356 5 10 10 13 15 16 17 19 9 8 15 14 347 312 256 271
202 206 209 211 214 222 233 257 280 308 324 336 341 344 351 354 351 350 348 348 348 343 331 312 316 331 342 356 7 10 14 14 15 18 15 16 5 11 14 11 332 276 271
202 205 208 210 214 220 231 251 271 301 320 331 341 346 355 357 356 353 352 352 351 347 345 332 320 328 337 346 357 10 12 17 17 17 20 13 9 8 11 13 2 350 303
202 205 206 209 213 219 229 242 263 296 313 329 339 349 359 2 359 357 355 356 355 349 350 348 337 332 337 341 347 1 6 16 17 19 23 19 13 8 8 16 19 21 358
201 207 207 207 212 218 223 232 251 284 302 322 338 354 5 6 3 358 358 359 356 352 352 353 350 342 345 351 348 349 356 3 11 15 18 26 23 15 12 15 19 24 32
206 209 208 209 213 216 219 226 244 268 271 307 337 0 10 11 6 2 1 2 359 358 356 358 1 360 356 6 0 347 347 351 1 6 13 16 23 26 19 20 24 25 34
209 209 209 210 213 211 214 218 236 245 235 271 339 13 15 14 10 7 6 6 6 6 5 4 7 9 1 14 7 347 343 344 349 358 4 14 16 24 27 18 25 25 35
212 212 210 209 210 206 209 212 226 221 207 222 24 23 19 18 15 12 11 13 14 13 14 11 9 9 9 24 11 359 352 347 349 348 0 4 12 25 25 19 12 22 27
222 216 213 209 204 205 207 207 217 207 198 200 140 37 27 22 20 19 19 21 22 22 21 18 13 11 13 30 11 360 356 348 348 341 1 360 8 22 24 26 26 13 30
221 213 208 203 203 201 205 205 207 197 194 190 168 89 34 25 28 23 24 28 30 31 29 26 23 20 17 22 10 4 355 347 345 339 357 1 7 24 25 26 28 20 20
215 209 204 201 202 201 203 204 201 192 192 187 178 164 52 28 33 31 30 29 32 34 35 33 29 27 22 20 13 10 354 350 344 337 342 1 13 29 28 26 26 24 22
203 201 198 198 199 200 202 202 196 191 193 186 179 173 99 37 33 31 33 29 28 27 31 32 31 29 24 23 17 10 2 353 340 334 334 359 11 30 28 30 33 34 37
199 196 196 195 196 199 200 201 195 193 191 187 184 170 138 59 31 27 26 27 25 22 25 25 25 23 20 23 14 6 1 354 337 321 325 352 8 26 36 39 42 45 51
195 193 191 195 195 197 199 196 196 195 192 189 186 179 165 114 25 13 14 19 23 19 19 17 18 19 19 20 7 357 355 359 348 309 305 318 14 46 40 51 59 53 49
192 193 193 196 197 199 198 195 194 197 193 191 191 190 180 154 16 8 5 10 16 20 13 10 11 10 20 14 3 359 2 2 353 19 66 129 148 127 97 71 69 72 67
191 191 195 196 197 201 200 196 195 196 197 196 196 196 197 192 177 359 357 6 12 17 10 7 4 7 11 8 6 5 8 5 14 17 60 80 97 86 75 69 66 66 60